Change the Weather History Date:

Saturday, May 18, 2013

  Actual Average Record
Temperature  
Mean Temperature 51 °F -  
Max Temperature 60 °F 69 °F 77 °F (2004)
Min Temperature 42 °F 52 °F 37 °F (2005)
Degree Days  
Heating Degree Days 14    
Growing Degree Days 1 (Base 50)    
Moisture  
Dew Point 44 °F    
Average Humidity 76    
Maximum Humidity 100    
Minimum Humidity 55    
Precipitation  
Precipitation 0.00 in - - ()
Sea Level Pressure  
Sea Level Pressure 29.73 in    
Wind  
Wind Speed 7 mph ()    
Max Wind Speed 18 mph    
Max Gust Speed -    
Visibility 5.3 miles    
Events Rain    
Averages and records for this station are not official NWS values.
T = Trace of Precipitation, MM = Missing Value Source: Averaged Metar Reports

Daily Weather History Graph

Daily Weather History Graph

Search for Another Location

Airport or City:

Trip Planner

Search our weather history database for the weather conditions in past years. The results will help you decide how hot, cold, wet, or windy it might be!

Date:

Astronomy

May. 18, 2013 Rise Set
Actual Time 6:03 AM CEST 9:29 PM CEST
Civil Twilight 5:24 AM CEST 10:08 PM CEST
Nautical Twilight 4:33 AM CEST 11:00 PM CEST
Astronomical Twilight 3:24 AM CEST 12:10 AM CEST
Moon 1:41 PM CEST 2:26 AM CEST
Length of Visible Light 16h 43m
Length of Day
15h 26m
First Quarter, 52% of the Moon is Illuminated
May 18
First Quarter
May 25
Full
May 31
Last Quarter
Jun 8
New
Jun 16
First Quarter

Hourly Weather History & Observations

Time (CEST) Temp. Windchill Dew Point Humidity Pressure Visibility Wind Dir Wind Speed Gust Speed Precip Events Conditions
12:00 AM 46.4 °F 44.3 °F 41.0 °F 81% 29.74 in - North 4.6 mph - N/A   Clear
12:30 AM 46.4 °F 43.5 °F 41.0 °F 81% 29.74 in - North 5.8 mph - N/A   Clear
1:00 AM 46.4 °F 43.5 °F 41.0 °F 81% 29.74 in - NNE 5.8 mph - N/A   Clear
1:30 AM 44.6 °F 42.2 °F 41.0 °F 87% 29.77 in - North 4.6 mph - N/A   Clear
2:00 AM 44.6 °F 42.2 °F 42.8 °F 93% 29.77 in - NNE 4.6 mph - N/A   Clear
2:30 AM 44.6 °F 42.2 °F 42.8 °F 93% 29.77 in 5.0 mi NNE 4.6 mph - N/A   Unknown
3:00 AM 44.6 °F 43.1 °F 41.0 °F 87% 29.77 in 4.3 mi NNE 3.5 mph - N/A   Unknown
3:30 AM 42.8 °F 40.1 °F 41.0 °F 93% 29.77 in 3.7 mi NNE 4.6 mph - N/A   Unknown
4:00 AM 42.8 °F 40.1 °F 41.0 °F 93% 29.77 in 3.1 mi NE 4.6 mph - N/A   Mist
4:30 AM 42.8 °F 39.3 °F 41.0 °F 93% 29.74 in 2.5 mi NE 5.8 mph - N/A   Mist
5:00 AM 42.8 °F 40.1 °F 41.0 °F 93% 29.77 in 2.5 mi NNE 4.6 mph - N/A   Mist
5:30 AM 42.8 °F 41.1 °F 41.0 °F 93% 29.77 in 1.9 mi NE 3.5 mph - N/A   Mist
6:00 AM 42.8 °F 40.1 °F 41.0 °F 93% 29.77 in 1.9 mi NNE 4.6 mph - N/A   Partly Cloudy
6:30 AM 42.8 °F 38.6 °F 41.0 °F 93% 29.77 in 2.5 mi NE 6.9 mph - N/A   Mist
7:00 AM 42.8 °F 39.3 °F 41.0 °F 93% 29.77 in 2.8 mi NE 5.8 mph - N/A   Mist
7:30 AM 44.6 °F 43.1 °F 44.6 °F 100% 29.77 in 3.7 mi NE 3.5 mph - N/A   Unknown
8:00 AM 46.4 °F 42.9 °F 44.6 °F 93% 29.77 in 4.3 mi ENE 6.9 mph - N/A   Scattered Clouds
8:30 AM 48.2 °F - 46.4 °F 93% 29.77 in 6.2 mi NE 6.9 mph - N/A   Mostly Cloudy
9:00 AM 50.0 °F - 44.6 °F 82% 29.77 in 6.2 mi ENE 8.1 mph - N/A   Scattered Clouds
9:30 AM 51.8 °F - 44.6 °F 76% 29.77 in 6.2 mi ENE 10.4 mph - N/A   Partly Cloudy
10:00 AM 51.8 °F - 44.6 °F 76% 29.77 in 6.2 mi ENE 11.5 mph - N/A   Scattered Clouds
10:30 AM 51.8 °F - 44.6 °F 76% 29.77 in 6.2 mi ENE 10.4 mph - N/A   Scattered Clouds
11:00 AM 53.6 °F - 42.8 °F 67% 29.77 in 6.2 mi East 10.4 mph - N/A   Mostly Cloudy
11:30 AM 55.4 °F - 42.8 °F 63% 29.74 in 6.2 mi NE 9.2 mph - N/A   Scattered Clouds
12:00 PM 57.2 °F - 42.8 °F 59% 29.74 in 6.2 mi NE 10.4 mph - N/A   Mostly Cloudy
12:30 PM 57.2 °F - 42.8 °F 59% 29.74 in 6.2 mi NE 10.4 mph - N/A   Mostly Cloudy
1:00 PM 59.0 °F - 42.8 °F 55% 29.71 in 6.2 mi ENE 9.2 mph - N/A   Mostly Cloudy
1:30 PM 59.0 °F - 42.8 °F 55% 29.74 in 6.2 mi ENE 10.4 mph - N/A   Mostly Cloudy
2:00 PM 59.0 °F - 42.8 °F 55% 29.74 in 6.2 mi East 10.4 mph - N/A   Mostly Cloudy
2:30 PM 59.0 °F - 44.6 °F 59% 29.71 in 6.2 mi East 11.5 mph - N/A   Mostly Cloudy
3:00 PM 59.0 °F - 44.6 °F 59% 29.71 in 6.2 mi ENE 12.7 mph - N/A   Mostly Cloudy
3:30 PM 59.0 °F - 44.6 °F 59% 29.71 in 6.2 mi ENE 12.7 mph - N/A   Mostly Cloudy
4:00 PM 60.8 °F - 46.4 °F 59% 29.68 in 6.2 mi ENE 12.7 mph - N/A   Mostly Cloudy
4:30 PM 60.8 °F - 44.6 °F 55% 29.68 in 6.2 mi ENE 12.7 mph - N/A   Mostly Cloudy
5:00 PM 60.8 °F - 44.6 °F 55% 29.68 in 6.2 mi ENE 11.5 mph - N/A Rain Light Rain
5:30 PM 59.0 °F - 48.2 °F 67% 29.68 in 6.2 mi ENE 13.8 mph - N/A Rain Light Rain
6:00 PM 59.0 °F - 46.4 °F 63% 29.68 in 6.2 mi NE 12.7 mph - N/A   Mostly Cloudy
6:30 PM 59.0 °F - 46.4 °F 63% 29.68 in 6.2 mi ENE 13.8 mph - N/A   Mostly Cloudy
7:00 PM 59.0 °F - 48.2 °F 67% 29.68 in 6.2 mi ENE 10.4 mph - N/A Rain Light Rain
7:30 PM 59.0 °F - 48.2 °F 67% 29.65 in 6.2 mi NE 10.4 mph - N/A Rain Light Rain
8:00 PM 57.2 °F - 50.0 °F 77% 29.68 in 6.2 mi ENE 12.7 mph - N/A Rain Light Rain
8:30 PM 57.2 °F - 51.8 °F 82% 29.68 in 6.2 mi East 18.4 mph - N/A   Mostly Cloudy
9:00 PM 57.2 °F - 48.2 °F 72% 29.68 in 6.2 mi ESE 17.3 mph - N/A   Mostly Cloudy
9:30 PM 57.2 °F - 48.2 °F 72% 29.68 in - East 13.8 mph - N/A   Clear
10:00 PM 57.2 °F - 48.2 °F 72% 29.68 in 6.2 mi East 12.7 mph - N/A Rain Light Rain
10:30 PM 57.2 °F - 48.2 °F 72% 29.68 in - East 10.4 mph - N/A   Clear
11:00 PM 55.4 °F - 48.2 °F 77% 29.71 in - East 9.2 mph - N/A   Clear
11:30 PM 55.4 °F - 48.2 °F 77% 29.71 in 6.2 mi ESE 11.5 mph - N/A   Unknown